Weather History for Big Piney, WY

Change the Weather History Date:

Tuesday, November 20, 2012

  Actual Average Record
Temperature  
Mean Temperature 32 °F 21 °F  
Max Temperature 44 °F 35 °F 54 °F (1989)
Min Temperature 19 °F 8 °F -7 °F (2011)
Degree Days  
Heating Degree Days 33 44  
Month to date heating degree days 672 771  
Since 1 July heating degree days 1802 2351  
Cooling Degree Days 0 0  
Month to date cooling degree days 0 0  
Year to date cooling degree days 67 35  
Moisture  
Dew Point 24 °F    
Average Humidity 83    
Maximum Humidity 96    
Minimum Humidity 70    
Precipitation  
Precipitation 0.00 in 0.01 in 0.04 in (2013)
Month to date precipitation 0.15 0.15  
Year to date precipitation 2.65 6.12  
Sea Level Pressure  
Sea Level Pressure 30.27 in    
Wind  
Wind Speed 2 mph (NE)    
Max Wind Speed 10 mph    
Max Gust Speed 12 mph    
Visibility 5 miles    
Events Fog    
T = Trace of Precipitation, MM = Missing Value Source: NWS Daily Summary

Daily Weather History Graph

Daily Weather History Graph

Search for Another Location

Airport:

Trip Planner

Search our weather history database for the weather conditions in past years. The results will help you decide how hot, cold, wet, or windy it might be!

Date:

Astronomy

Nov. 20, 2012 Rise Set
Actual Time 7:18 AM MST 4:53 PM MST
Civil Twilight 6:47 AM MST 5:24 PM MST
Nautical Twilight 6:13 AM MST 5:58 PM MST
Astronomical Twilight 5:39 AM MST 6:32 PM MST
Moon 12:50 PM MST No Moon Set
Length of Visible Light 10h 36m
Length of Day
9h 34m
First Quarter, 52% of the Moon is Illuminated
Nov 20
First Quarter
Nov 28
Full
Dec 6
Last Quarter
Dec 13
New
Dec 19
First Quarter

Hourly Weather History & Observations

Time (MST) Temp. Windchill Dew Point Humidity Pressure Visibility Wind Dir Wind Speed Gust Speed Precip Events Conditions
12:06 AM 26.6 °F 22.6 °F 24.8 °F 93% 30.29 in 10.0 mi ENE 3.5 mph - N/A   Partly Cloudy
12:53 AM 26.1 °F 19.4 °F 23.0 °F 88% 30.29 in 10.0 mi ESE 5.8 mph - N/A   Clear
1:46 AM 23.0 °F - 21.2 °F 93% 30.28 in 9.0 mi Calm Calm - N/A   Scattered Clouds
1:53 AM 23.0 °F 17.0 °F 21.0 °F 92% 30.29 in 10.0 mi NW 4.6 mph - N/A   Mostly Cloudy
1:59 AM 23.0 °F - 21.2 °F 93% 30.28 in 2.5 mi Calm Calm - N/A   Mostly Cloudy
2:02 AM 24.8 °F - 21.2 °F 86% 30.28 in 0.8 mi Calm Calm - N/A   Mostly Cloudy
2:29 AM 23.0 °F - 21.2 °F 93% 30.28 in 2.5 mi Calm Calm - N/A   Mostly Cloudy
2:36 AM 21.2 °F - 21.2 °F 100% 30.29 in 4.0 mi Calm Calm - N/A   Mostly Cloudy
2:39 AM 21.2 °F - 19.4 °F 93% 30.28 in 1.8 mi Calm Calm - N/A   Scattered Clouds
2:43 AM 21.2 °F 16.4 °F 19.4 °F 93% 30.28 in 0.8 mi North 3.5 mph - N/A   Mist
2:53 AM 24.1 °F - 23.0 °F 96% 30.27 in 0.2 mi Calm Calm - N/A Fog Light Freezing Fog
3:53 AM 23.0 °F 18.4 °F 21.0 °F 92% 30.27 in 0.5 mi West 3.5 mph - N/A Fog Light Freezing Fog
4:53 AM 21.9 °F - 19.0 °F 89% 30.29 in 0.8 mi Calm Calm - N/A   Overcast
5:05 AM 23.0 °F - 21.2 °F 93% 30.27 in 2.0 mi Calm Calm - N/A   Overcast
5:15 AM 24.8 °F 20.5 °F 21.2 °F 86% 30.27 in 8.0 mi East 3.5 mph - N/A   Overcast
5:26 AM 24.8 °F 20.5 °F 21.2 °F 86% 30.28 in 1.2 mi ENE 3.5 mph - N/A   Overcast
5:34 AM 24.8 °F 17.9 °F 23.0 °F 93% 30.28 in 0.5 mi NE 5.8 mph - N/A Fog Light Freezing Fog
5:39 AM 23.0 °F 14.7 °F 21.2 °F 93% 30.28 in 2.0 mi ENE 6.9 mph - N/A   Overcast
5:46 AM 23.0 °F 17.0 °F 21.2 °F 93% 30.28 in 10.0 mi ENE 4.6 mph - N/A   Mostly Cloudy
5:53 AM 23.0 °F 17.0 °F 19.9 °F 88% 30.30 in 10.0 mi ENE 4.6 mph - N/A   Mostly Cloudy
6:00 AM 23.0 °F 15.8 °F 19.4 °F 86% 30.28 in 10.0 mi ENE 5.8 mph - N/A   Scattered Clouds
6:53 AM 19.9 °F 14.9 °F 18.0 °F 92% 30.32 in 10.0 mi WSW 3.5 mph - N/A   Clear
7:22 AM 19.4 °F - 17.6 °F 93% 30.28 in 1.8 mi Calm Calm - N/A   Scattered Clouds
7:24 AM 19.4 °F - 17.6 °F 93% 30.28 in 0.5 mi Calm Calm - N/A Fog Light Freezing Fog
7:53 AM 21.0 °F - 19.0 °F 92% 30.34 in 0.2 mi Calm Calm - N/A Fog Light Freezing Fog
8:53 AM 24.1 °F - 23.0 °F 96% 30.33 in 1.8 mi Calm Calm - N/A   Overcast
9:10 AM 24.8 °F - 24.8 °F 100% 30.28 in 3.0 mi Calm Calm - N/A   Overcast
9:23 AM 26.6 °F - 24.8 °F 93% 30.29 in 2.0 mi Calm Calm - N/A   Overcast
9:32 AM 26.6 °F - 24.8 °F 93% 30.28 in 4.0 mi Calm Calm - N/A   Overcast
9:44 AM 26.6 °F 22.6 °F 24.8 °F 93% 30.29 in 1.8 mi SW 3.5 mph - N/A   Overcast
9:53 AM 26.1 °F - 25.0 °F 96% 30.33 in 0.8 mi Calm Calm - N/A   Mist
10:53 AM 30.0 °F - 28.9 °F 96% 30.33 in 0.8 mi Calm Calm - N/A   Mist
11:11 AM 30.2 °F - 28.4 °F 93% 30.28 in 2.0 mi Calm Calm - N/A   Overcast
11:22 AM 32.0 °F 28.7 °F 30.2 °F 93% 30.27 in 0.8 mi ESE 3.5 mph - N/A   Overcast
11:53 AM 32.0 °F - 30.2 °F 93% 30.26 in 1.8 mi Calm Calm - N/A   Overcast
11:57 AM 32.0 °F - 30.2 °F 93% 30.26 in 3.0 mi Calm Calm - N/A   Overcast
12:32 PM 33.8 °F - 32.0 °F 93% 30.24 in 10.0 mi Calm Calm - N/A   Scattered Clouds
12:53 PM 36.0 °F - 33.1 °F 89% 30.25 in 10.0 mi Calm Calm - N/A   Clear
1:53 PM 42.1 °F - 34.0 °F 73% 30.19 in 10.0 mi Calm Calm - N/A   Clear
2:53 PM 43.0 °F 41.3 °F 34.0 °F 71% 30.17 in 10.0 mi SSE 3.5 mph - N/A   Clear
3:53 PM 41.0 °F - 34.0 °F 76% 30.18 in 10.0 mi Calm Calm - N/A   Clear
4:53 PM 37.0 °F - 32.0 °F 82% 30.19 in 10.0 mi Calm Calm - N/A   Clear
5:53 PM 32.0 °F 25.6 °F 28.9 °F 88% 30.22 in 10.0 mi NNW 6.9 mph - N/A   Clear
6:53 PM 30.9 °F 26.2 °F 28.0 °F 89% 30.22 in 10.0 mi ENE 4.6 mph - N/A   Clear
7:53 PM 28.0 °F - 26.1 °F 92% 30.23 in 10.0 mi Calm Calm - N/A   Clear
8:53 PM 28.0 °F - 26.1 °F 92% 30.21 in 10.0 mi Calm Calm - N/A   Clear
9:53 PM 27.0 °F - 25.0 °F 92% 30.21 in 10.0 mi Calm Calm - N/A   Clear
10:53 PM 26.1 °F 17.6 °F 24.1 °F 92% 30.18 in 10.0 mi NNW 8.1 mph - N/A   Clear
11:53 PM 24.1 °F 19.7 °F 21.9 °F 91% 30.17 in 10.0 mi ENE 3.5 mph - N/A   Clear